Fort Myers, FL

12:59 PM EDT on June 23, 2017 (GMT -0400)
Page

Weather History for KFMY - February, 2012

Change the Weather History Date:

Friday, February 10, 2012

  Actual Average Record
Temperature  
Mean Temperature 74 °F 66 °F  
Max Temperature 84 °F 77 °F 88 °F (2001)
Min Temperature 64 °F 55 °F 38 °F (1976)
Degree Days  
Heating Degree Days 0 2  
Month to date heating degree days 0 26  
Since 1 July heating degree days 103 227  
Cooling Degree Days 9 3  
Month to date cooling degree days 84 30  
Year to date cooling degree days 175 113  
Growing Degree Days 23 (Base 50)    
Moisture  
Dew Point 64 °F    
Average Humidity 78    
Maximum Humidity 90    
Minimum Humidity 58    
Precipitation  
Precipitation T in 0.06 in 1.22 in (1983)
Month to date precipitation 0.14 0.68  
Year to date precipitation 0.29 2.62  
Sea Level Pressure  
Sea Level Pressure 30.01 in    
Wind  
Wind Speed 7 mph (NNE)    
Max Wind Speed 16 mph    
Max Gust Speed 22 mph    
Visibility 10 miles    
Events Rain    
T = Trace of Precipitation, MM = Missing Value Source: NWS Daily Summary

Daily Weather History Graph

Daily Weather History Graph

Search for Another Location

Airport or City:

Trip Planner

Search our weather history database for the weather conditions in past years. The results will help you decide how hot, cold, wet, or windy it might be!

Date:

Astronomy

Feb. 10, 2012 Rise Set
Actual Time 7:07 AM EST 6:16 PM EST
Civil Twilight 6:43 AM EST 6:40 PM EST
Nautical Twilight 6:16 AM EST 7:07 PM EST
Astronomical Twilight 5:49 AM EST 7:34 PM EST
Moon 9:24 PM EST (2/10) 8:39 AM EST (2/10)
Length of Visible Light 11h 56m
Length of Day
11h 08m
Waning Gibbous, 90% of the Moon is Illuminated
Feb 10
Waning Gibbous
Feb 14
Last Quarter
Feb 21
New
Feb 29
First Quarter
Mar 8
Full

Hourly Weather History & Observations

Time (EST) Temp. Heat Index Dew Point Humidity Pressure Visibility Wind Dir Wind Speed Gust Speed Precip Events Conditions
12:53 AM 68.0 °F - 61.0 °F 78% 30.09 in 10.0 mi NE 6.9 mph - N/A   Overcast
1:53 AM 66.9 °F - 61.0 °F 81% 30.08 in 10.0 mi ENE 6.9 mph - N/A   Mostly Cloudy
2:53 AM 66.0 °F - 60.1 °F 81% 30.05 in 10.0 mi NE 6.9 mph - N/A   Clear
3:53 AM 64.9 °F - 60.1 °F 84% 30.03 in 10.0 mi ENE 6.9 mph - N/A   Clear
4:19 AM 64.4 °F - 60.8 °F 88% 30.02 in 10.0 mi ENE 4.6 mph - N/A   Mostly Cloudy
4:50 AM 64.4 °F - 60.8 °F 88% 30.01 in 10.0 mi East 5.8 mph - N/A   Mostly Cloudy
4:53 AM 64.9 °F - 61.0 °F 87% 30.02 in 10.0 mi East 5.8 mph - N/A   Mostly Cloudy
5:39 AM 66.2 °F - 60.8 °F 83% 30.02 in 10.0 mi ENE 5.8 mph - N/A   Scattered Clouds
5:53 AM 64.9 °F - 61.0 °F 87% 30.04 in 10.0 mi ENE 3.5 mph - N/A   Clear
6:53 AM 66.0 °F - 62.1 °F 87% 30.05 in 10.0 mi Calm Calm - N/A   Overcast
7:53 AM 66.9 °F - 62.1 °F 84% 30.06 in 10.0 mi ENE 4.6 mph - N/A   Mostly Cloudy
8:53 AM 70.0 °F - 63.0 °F 78% 30.07 in 10.0 mi ENE 4.6 mph - N/A   Partly Cloudy
9:53 AM 75.0 °F - 66.0 °F 73% 30.08 in 10.0 mi Variable 3.5 mph - N/A   Clear
10:40 AM 78.8 °F - 66.2 °F 65% 30.07 in 10.0 mi East 5.8 mph - N/A   Mostly Cloudy
10:53 AM 79.0 °F - 66.9 °F 66% 30.06 in 10.0 mi ESE 8.1 mph - N/A   Mostly Cloudy
11:19 AM 80.6 °F 82.7 °F 66.2 °F 61% 30.04 in 10.0 mi SE 8.1 mph - N/A   Scattered Clouds
11:53 AM 80.1 °F 82.1 °F 66.0 °F 62% 30.04 in 10.0 mi SSE 3.5 mph - N/A   Mostly Cloudy
12:53 PM 82.9 °F 85.0 °F 66.0 °F 56% 30.00 in 10.0 mi Variable 3.5 mph - N/A   Mostly Cloudy
1:53 PM 82.9 °F 85.4 °F 66.9 °F 58% 29.98 in 10.0 mi WSW 9.2 mph - N/A   Partly Cloudy
2:53 PM 81.0 °F 83.3 °F 66.9 °F 62% 29.95 in 10.0 mi West 11.5 mph - N/A   Clear
3:53 PM 78.1 °F - 66.9 °F 68% 29.94 in 10.0 mi WSW 13.8 mph - N/A   Clear
4:53 PM 73.9 °F - 66.9 °F 79% 29.95 in 10.0 mi West 12.7 mph - N/A   Clear
5:43 PM 71.6 °F - 66.2 °F 83% 29.90 in 10.0 mi Variable 3.5 mph - N/A   Mostly Cloudy
5:53 PM 72.0 °F - 66.9 °F 84% 29.91 in 8.0 mi WNW 4.6 mph - 0.00 in Rain Light Rain
6:01 PM 71.6 °F - 66.2 °F 83% 29.92 in 10.0 mi WNW 9.2 mph - 0.00 in Rain Light Rain
6:53 PM 71.1 °F - 66.9 °F 87% 29.94 in 10.0 mi WNW 8.1 mph - 0.00 in   Overcast
7:53 PM 71.1 °F - 66.0 °F 84% 29.94 in 10.0 mi WNW 5.8 mph - N/A   Overcast
8:53 PM 70.0 °F - 66.0 °F 87% 29.96 in 10.0 mi WNW 6.9 mph - N/A   Overcast
9:53 PM 70.0 °F - 66.0 °F 87% 29.98 in 10.0 mi West 8.1 mph - N/A   Overcast
10:17 PM 69.8 °F - 66.2 °F 88% 29.97 in 10.0 mi WNW 8.1 mph - N/A   Overcast
10:53 PM 70.0 °F - 66.0 °F 87% 29.96 in 10.0 mi NW 8.1 mph - N/A   Overcast
11:53 PM 69.1 °F - 64.9 °F 87% 29.99 in 10.0 mi NW 13.8 mph 21.9 mph 0.00 in Rain Light Rain